Showing default

COSMOS 2453, 35500

Orbit data source: Space-Track

COSMOS 2453, 35500 is a payload satellite owned by KVR (CIS) in LEO that was launched on Mon, 06 Jul 2009 UTC via an ROKOT launch vehicle from the Plesetsk Missile And Space Complex (PKMTR). Payloads include a variety of satellites, spacecraft, and rockets equipped with specific instruments for various scientific and technological missions. These include communications satellites like Starlink; space stations such as the ISS; scientific satellites like the Hubble; Earth observation satellites from companies like Planet Labs, Umbra, and HawkEye 360; GPS; miniature CubeSats for education and research; and military/defense satellites.

Loading next visibility...
COSMOS 2453 details
Identifier
35500, 2009-036C
Orbit
LEO
Last TLE update17 hours ago
Origin
Flag of CISKVR (CIS)
ManufacturerResehetnev ISS
MissionOperational Defense Communications
Bus & MotorSTRELA-3, Unknown motor
Mass225 kg wet, 225 kg dry
Launch date (UTC)
2009-07-06 (15 years ago)
Launch vehicle
ROKOT
Launch site
Plesetsk Missile And Space Complex (PKMTR)
Object type
Payload
Rocket body
Debris
Shape & HBRCyl + 1 Ant, 7 m
Radar Cross Section1.583 m², Medium (>0.1 m² and < 1m²)

Expand to show TLE details & history

TLE from 17 hours ago
0 COSMOS 2453
1 35500U 09036C   24348.18044520  .00000016  00000-0  48465-4 0  9994
2 35500  82.4892  70.1979 0006064 284.9246  75.1162 12.41504181699724
Epoch: 2024-12-13T04:19Z
Definitive object data (Epoch: 2024-12-13T04:19:50.465Z)
Latitude0.00007°
Longitude-77.11248°
Altitude1,501.706 km
Speed7.114 km/s
True Right ascension04h 40m 47s
True Declination0° 00' 00"
Sunlit
Object was in full shadow at TLE epoch
Visualization TLE readout
Latitude-45.25847°
Longitude110.06351°
Altitude1,515.04 km
Speed7.108 km/s
Apparent Right ascension13h 05m 36s
Apparent Declination-71° 15' 50"
Sunlit
Object is in daylight
Visualization observer readout
Local Sidereal Time19:32:34
Azimuth204.433° SW
Elevation-39.537°
Doppler factor1
Orbital elements
Apogee altitude1,502.363 km
Perigee altitude1,492.811 km
Semi-major axis7,875.724 km
Eccentricity0.0006064
Inclination82.4892°
RAAN70.1979°
Arg. of periapsis284.9246°
True anomaly75.18337°
Mean anomaly75.1162°
Eccentric anomaly75.14978°
Mean motion3.10533 °/min
BSTAR0.000048465
Orbital period115.93 mins
Loading maneuver chart data...
Loading historical data...
Loading historical data...
Loading historical data...
Loading historical data...
Loading historical data...
Loading historical data...
Loading historical data...
Other satellites on launch #36 in the year 2009 (2009-07-06 UTC)

COSMOS 2453 Visibility forecast

Observer location: undefined°, undefined

Span
Click to sort rows by Start time (UTC) header in descending order
Start Az.
Max El. time (UTC)
Max El. Az.
Max El.
End time (UTC)
End Az.
15 mins2024-12-14 05:33:54.110Z156.237° SSE2024-12-14 05:40:54.110Z95.272° ESE36.267°2024-12-14 05:48:54.110Z20.2° NNE
14 mins2024-12-14 07:31:54.110Z228.468° WSW2024-12-14 07:37:54.110Z281.817° WNW31.049°2024-12-14 07:45:54.110Z351.882° N
11 mins2024-12-14 15:46:54.110Z24.98° NE2024-12-14 15:51:54.110Z65.364° ENE21.031°2024-12-14 15:57:54.110Z111.47° ESE
15 mins2024-12-14 17:42:54.110Z348.144° N2024-12-14 17:49:54.110Z257.989° W44.241°2024-12-14 17:57:54.110Z182.312° SSW
5 mins2024-12-14 19:42:54.110Z301.206° NW2024-12-14 19:44:54.110Z286.874° WNW13.056°2024-12-14 19:47:54.110Z265.486° W
|